Wind_Speed
17 18 19 21 22 23 24 23 24 23 23 22 23 23 24 24 25 27 28 30 31 32 32 33 33 33 33 34 34 34 34 34 34 34 33 33 32 32 32 31 31 32 32 32
17 18 20 21 21 22 22 23 23 24 23 22 23 23 23 23 24 25 26 26 27 28 28 29 29 30 30 30 30 30 31 31 31 31 31 30 30 30 30 30 30 30 31 31
17 18 19 19 20 21 21 21 22 22 20 24 23 22 22 22 22 23 23 24 24 25 26 27 27 27 27 27 28 28 28 28 28 28 29 28 28 28 28 28 29 29 29 30
18 19 19 18 20 21 21 21 21 20 20 21 21 22 22 21 21 22 22 22 23 23 24 24 25 25 26 26 26 26 26 26 27 27 27 27 26 27 27 27 28 29 29 29
18 19 18 18 18 20 20 20 20 20 20 21 21 21 20 21 21 21 21 21 22 22 23 23 24 24 24 24 24 25 25 25 25 25 25 25 25 26 26 27 27 27 28 28
18 18 17 17 18 19 19 19 19 19 20 20 20 20 20 20 20 21 21 21 22 22 23 23 23 23 23 23 23 23 24 23 23 23 24 24 24 25 25 26 26 26 27 27
20 19 17 17 17 18 18 18 18 18 19 19 20 21 21 21 21 21 21 21 22 22 22 22 22 22 22 22 22 22 22 22 22 22 22 23 23 24 24 25 25 25 26 26
22 21 18 18 18 18 18 18 18 19 19 20 20 21 21 21 21 21 21 21 21 21 21 21 21 21 21 21 21 21 21 21 21 21 22 22 22 23 23 24 24 25 25 26
22 21 20 20 20 19 19 19 19 19 19 19 19 20 20 21 21 21 21 21 21 21 21 21 21 21 21 21 21 20 20 20 20 20 21 21 22 22 23 23 24 25 25 26
22 22 22 22 21 21 21 21 21 21 20 20 20 20 20 20 20 20 21 21 21 21 21 21 21 21 21 21 21 20 20 21 21 21 21 21 22 22 23 24 24 25 26 27
23 22 23 24 23 23 23 22 22 22 22 22 21 21 20 20 20 21 21 21 21 21 21 21 21 21 21 21 21 21 21 21 21 21 21 22 22 23 24 25 25 26 27 28
23 23 23 23 24 24 24 24 23 23 23 23 23 23 22 22 22 21 22 22 22 21 21 21 21 21 21 21 21 21 21 21 21 21 22 22 23 24 25 26 26 27 28 29
24 23 23 23 23 23 24 24 24 24 24 24 24 24 23 23 23 23 23 23 23 22 22 22 22 22 22 22 22 22 22 22 22 22 22 23 24 25 26 26 27 28 29 30
24 23 23 23 24 24 24 24 24 25 25 25 25 25 25 24 24 24 24 24 24 23 23 23 23 23 23 23 23 23 23 23 23 23 24 25 25 26 27 27 28 29 30 31
24 23 23 23 24 24 24 25 25 25 25 26 26 26 25 25 25 25 25 24 24 24 24 24 24 24 24 24 24 24 24 25 25 25 26 26 27 28 28 29 30 30 31 32
23 23 23 23 23 23 24 24 24 25 25 25 25 25 26 25 26 26 25 25 25 25 25 25 25 25 25 25 26 26 26 27 27 27 27 28 29 29 30 30 31 32 32 33
21 21 22 22 22 23 24 24 24 24 24 25 25 26 26 26 26 26 26 26 26 26 26 26 26 26 26 26 27 27 27 27 27 28 28 29 29 30 31 31 32 33 33 34
20 20 21 22 22 23 24 24 25 25 24 25 25 26 26 27 26 26 26 26 27 27 27 27 27 26 27 27 27 27 28 28 29 29 29 30 30 31 32 32 33 33 34 35
20 20 20 21 21 22 23 24 24 25 25 25 25 25 26 26 26 26 26 26 27 27 27 27 27 27 27 27 27 28 28 29 29 29 30 30 31 32 32 33 33 34 35 36
19 20 20 20 20 21 22 23 24 25 25 25 25 26 26 26 27 27 27 27 27 28 28 28 28 28 28 28 28 28 29 29 30 30 31 32 32 33 33 33 34 35 35 36
19 19 19 19 20 20 21 22 23 23 24 25 25 25 26 26 26 27 27 27 28 28 28 28 28 28 29 29 29 29 30 30 31 31 32 32 32 33 34 34 35 35 36 37
18 18 18 18 19 19 19 19 20 21 22 23 24 25 25 26 26 26 26 26 27 27 27 28 28 28 29 29 30 30 31 31 32 32 32 32 33 34 34 35 35 36 37 38
17 17 17 16 17 17 17 17 18 20 21 21 22 23 23 24 25 25 25 25 26 26 26 27 28 28 29 29 30 30 31 31 31 32 32 33 34 34 35 35 36 37 38 39
18 17 17 17 17 16 17 17 17 18 19 20 20 21 21 22 22 23 24 25 25 25 26 27 27 28 29 30 30 30 31 31 31 32 33 33 33 34 35 36 37 38 39 39
18 18 18 18 18 18 18 18 18 18 18 19 19 20 20 21 22 23 23 24 25 26 26 27 28 29 30 30 31 31 32 32 33 34 34 35 36 36 37 38 38 39 40 40
19 19 20 20 20 20 20 20 20 20 20 20 20 21 21 21 22 23 24 25 25 26 27 28 29 30 30 31 32 33 34 34 35 36 37 38 39 39 39 40 40 40 41 42
22 22 22 23 23 22 22 22 22 23 22 22 22 23 23 23 24 25 25 26 27 28 29 30 31 32 33 33 34 35 36 36 37 38 38 39 40 40 40 41 41 42 42 43
Wind_Direction
233 234 235 234 235 237 240 241 241 240 241 240 242 242 242 242 241 241 241 242 243 245 246 247 249 250 252 254 256 257 259 260 262 264 265 267 268 269 271 273 275 278 281 283
235 236 236 236 237 240 241 243 245 243 242 243 243 242 241 241 241 241 242 243 245 245 246 248 249 250 252 253 255 257 259 260 261 263 264 266 268 269 271 273 276 279 282 284
239 241 242 239 239 240 242 244 245 243 241 242 241 239 238 239 240 241 242 244 245 245 246 248 249 250 251 253 255 257 258 260 262 263 264 266 268 269 271 274 277 280 283 286
243 244 246 246 242 242 244 245 245 242 240 242 241 240 240 240 240 241 242 243 245 247 248 249 250 250 251 253 255 256 258 260 262 263 264 266 267 270 273 276 279 282 285 287
244 245 246 246 245 243 243 243 244 241 240 241 240 240 240 241 241 242 244 245 247 249 249 250 251 252 253 253 255 256 259 261 262 263 264 266 269 272 275 277 280 283 286 288
246 248 246 246 244 242 242 241 242 241 240 239 239 239 239 240 241 244 246 247 248 249 250 251 251 252 252 253 255 257 259 261 262 263 265 267 270 273 276 279 281 284 286 289
247 248 245 245 244 242 242 241 240 239 238 237 239 240 242 243 245 247 247 249 250 250 250 250 251 251 252 253 255 258 259 260 262 264 266 268 271 275 278 280 282 285 287 290
248 249 246 244 243 242 243 241 239 239 239 239 241 244 245 246 247 247 248 249 250 250 249 249 250 251 252 254 255 258 259 261 263 265 267 269 272 275 277 280 283 286 288 291
247 247 247 245 244 244 243 242 242 242 242 242 244 246 246 247 247 247 248 248 249 249 249 250 251 252 252 253 255 257 259 261 264 266 268 270 273 275 278 281 284 287 289 292
247 246 246 246 245 244 244 244 243 243 243 245 246 247 248 248 248 248 248 250 251 251 251 252 253 253 253 253 255 257 260 262 264 266 269 271 274 277 279 282 285 287 290 293
247 246 246 246 246 245 244 244 244 244 244 245 246 248 248 248 249 251 250 249 251 251 251 252 253 254 254 255 256 259 261 263 265 267 270 272 275 277 280 283 285 288 291 293
246 246 246 245 245 245 245 244 245 245 245 246 247 249 249 249 250 251 251 250 251 253 253 253 254 255 255 256 257 260 262 264 266 268 271 273 276 279 282 284 286 288 291 293
245 245 246 245 245 245 246 246 246 246 246 247 248 249 249 250 251 252 252 252 252 253 255 255 255 255 256 257 259 260 262 265 267 269 272 275 278 281 283 285 287 289 291 293
243 245 246 246 246 246 247 247 247 247 248 248 249 249 249 250 252 253 253 253 252 254 255 256 256 257 258 259 260 261 263 265 268 270 273 276 279 281 284 286 288 290 292 294
244 245 246 246 247 248 248 249 249 248 249 250 250 250 250 251 252 253 253 253 254 255 256 256 257 258 259 260 261 262 263 265 268 272 275 278 280 282 284 286 288 291 293 294
247 248 247 248 249 249 250 250 251 251 251 251 251 251 250 251 252 252 252 253 254 255 256 257 257 258 259 260 262 263 264 266 269 273 276 279 281 283 285 287 289 291 292 294
247 248 249 249 249 250 251 251 252 253 253 252 251 252 252 251 252 252 252 253 254 255 256 257 258 259 261 262 263 264 266 268 270 273 276 279 281 283 285 287 289 291 292 294
248 249 251 251 252 252 252 252 253 253 254 254 252 252 252 252 252 252 252 253 255 255 256 257 258 260 262 263 265 266 267 269 271 273 276 279 281 283 285 287 289 291 292 294
248 250 252 254 255 255 254 254 254 254 254 254 253 253 252 252 252 253 254 254 255 256 256 257 258 260 262 264 266 267 269 270 272 274 277 279 282 284 286 287 289 291 293 295
248 250 253 256 258 259 257 256 255 254 254 254 254 253 253 254 254 255 255 256 256 257 258 258 259 261 262 264 267 269 269 271 273 275 278 280 282 284 285 287 289 291 293 295
251 253 256 257 258 260 260 259 257 256 255 255 255 255 255 255 255 256 256 257 257 258 259 260 261 262 263 265 267 269 270 271 274 276 279 281 282 284 285 287 289 291 292 294
253 254 256 258 259 261 263 261 259 258 258 259 258 257 257 256 257 257 257 257 258 258 260 261 262 263 265 266 268 270 271 273 274 276 278 280 282 284 286 288 289 291 293 295
251 251 254 256 258 261 263 264 263 261 261 261 261 260 259 258 257 257 257 258 259 260 261 263 264 265 267 268 270 271 273 274 275 276 278 281 283 284 287 289 290 292 294 296
250 252 255 257 260 263 266 267 267 265 264 263 263 262 261 260 259 259 259 260 261 262 264 266 267 267 268 269 270 272 274 275 277 278 280 282 283 286 288 290 291 293 295 296
253 255 257 259 261 264 267 269 271 271 269 267 266 264 263 263 263 263 263 263 264 265 267 268 269 270 270 271 272 273 275 276 278 279 281 282 284 286 288 290 291 293 294 296
257 257 257 259 262 265 267 270 272 273 272 271 269 268 267 268 268 268 267 267 268 269 270 271 272 273 274 274 274 275 276 277 278 280 281 283 284 285 287 289 290 292 293 295
257 259 260 261 263 266 269 271 272 272 273 273 272 271 270 270 271 271 271 271 271 272 272 273 274 275 275 276 276 277 278 279 280 281 282 283 285 286 287 289 290 291 292 294
Height
5643 5644 5646 5647 5649 5650 5651 5653 5655 5657 5658 5661 5662 5664 5666 5667 5669 5671 5673 5675 5677 5680 5682 5684 5686 5688 5689 5691 5692 5694 5694 5695 5695 5695 5695 5695 5695 5694 5693 5692 5691 5689 5688 5685
5639 5640 5641 5642 5644 5645 5646 5648 5649 5651 5653 5655 5656 5658 5660 5661 5663 5665 5666 5668 5670 5672 5674 5676 5678 5680 5681 5683 5684 5685 5686 5686 5687 5687 5687 5687 5686 5686 5685 5684 5683 5681 5679 5677
5635 5635 5636 5638 5640 5640 5641 5643 5644 5645 5649 5648 5650 5652 5654 5655 5657 5659 5660 5662 5664 5666 5667 5669 5671 5672 5674 5675 5676 5677 5678 5678 5678 5679 5679 5678 5678 5677 5677 5676 5675 5673 5671 5669
5630 5631 5632 5636 5634 5635 5636 5637 5638 5640 5642 5643 5644 5646 5648 5650 5652 5653 5655 5656 5658 5659 5661 5662 5664 5665 5666 5667 5669 5669 5670 5670 5671 5671 5671 5671 5670 5670 5669 5668 5667 5665 5663 5660
5625 5626 5627 5629 5629 5629 5631 5632 5633 5635 5636 5637 5639 5641 5643 5644 5646 5648 5649 5651 5652 5653 5655 5656 5657 5658 5659 5660 5661 5662 5663 5663 5663 5663 5663 5663 5663 5662 5661 5660 5659 5657 5655 5653
5620 5620 5622 5625 5624 5624 5627 5628 5629 5630 5631 5632 5634 5636 5638 5639 5640 5642 5644 5645 5646 5647 5648 5649 5651 5652 5653 5654 5655 5655 5656 5656 5656 5656 5656 5656 5656 5655 5654 5653 5651 5650 5647 5645
5614 5615 5617 5619 5619 5620 5623 5624 5624 5624 5626 5627 5629 5631 5632 5634 5635 5636 5638 5639 5640 5641 5642 5643 5644 5645 5646 5647 5648 5649 5649 5649 5649 5649 5649 5649 5649 5648 5647 5646 5644 5642 5640 5638
5608 5609 5614 5613 5614 5615 5617 5617 5618 5619 5621 5622 5624 5625 5627 5628 5629 5630 5632 5633 5634 5635 5636 5637 5638 5639 5640 5641 5642 5642 5643 5643 5643 5643 5643 5642 5642 5641 5640 5639 5637 5635 5633 5631
5603 5606 5606 5607 5608 5609 5611 5612 5613 5614 5616 5617 5618 5620 5621 5622 5623 5625 5626 5627 5628 5629 5630 5631 5632 5633 5634 5635 5635 5636 5636 5636 5636 5636 5636 5636 5635 5634 5633 5632 5630 5628 5626 5624
5596 5598 5599 5600 5601 5603 5604 5606 5607 5609 5610 5612 5613 5614 5616 5617 5618 5619 5620 5621 5622 5623 5624 5625 5626 5627 5628 5628 5629 5630 5630 5630 5630 5630 5629 5629 5628 5627 5626 5625 5623 5621 5619 5616
5589 5592 5592 5594 5595 5597 5598 5600 5601 5603 5604 5606 5607 5609 5610 5611 5612 5613 5614 5615 5616 5617 5618 5619 5620 5621 5621 5622 5623 5623 5623 5623 5623 5623 5623 5622 5621 5620 5619 5618 5616 5614 5611 5609
5583 5584 5586 5588 5589 5590 5592 5593 5595 5596 5598 5599 5601 5602 5604 5605 5606 5607 5608 5609 5610 5611 5612 5613 5614 5614 5615 5616 5616 5616 5617 5617 5617 5616 5616 5615 5614 5613 5612 5610 5608 5606 5603 5601
5575 5577 5578 5580 5582 5583 5585 5586 5588 5590 5591 5593 5594 5596 5597 5598 5599 5600 5601 5602 5603 5604 5605 5606 5607 5608 5609 5609 5609 5610 5610 5610 5610 5609 5609 5608 5607 5606 5604 5602 5600 5598 5595 5593
5567 5569 5571 5573 5575 5576 5578 5579 5581 5583 5584 5586 5587 5588 5590 5591 5592 5594 5595 5596 5597 5598 5599 5600 5600 5601 5602 5602 5603 5603 5603 5603 5603 5602 5601 5600 5599 5598 5596 5594 5592 5590 5587 5584
5561 5563 5565 5566 5568 5569 5571 5572 5574 5575 5577 5578 5580 5581 5583 5584 5585 5586 5587 5589 5590 5591 5592 5592 5593 5594 5594 5595 5595 5595 5595 5595 5595 5594 5593 5592 5591 5590 5588 5586 5584 5581 5579 5576
5554 5556 5557 5559 5561 5562 5564 5565 5567 5568 5569 5571 5572 5574 5575 5576 5578 5579 5580 5581 5582 5583 5584 5585 5586 5586 5587 5587 5587 5587 5587 5587 5587 5586 5585 5584 5583 5581 5579 5577 5575 5572 5570 5567
5547 5549 5551 5552 5554 5555 5557 5558 5559 5561 5562 5563 5564 5566 5567 5569 5570 5571 5572 5574 5575 5576 5577 5577 5578 5578 5579 5579 5579 5579 5579 5579 5578 5578 5577 5575 5574 5572 5570 5568 5566 5563 5560 5558
5542 5543 5545 5546 5547 5548 5550 5551 5552 5553 5554 5556 5557 5558 5559 5561 5562 5563 5564 5566 5567 5568 5569 5569 5570 5570 5571 5571 5571 5571 5571 5570 5570 5569 5568 5566 5565 5563 5561 5559 5556 5554 5551 5548
5536 5537 5538 5539 5540 5541 5542 5543 5545 5546 5547 5548 5549 5550 5551 5553 5554 5555 5556 5558 5558 5559 5560 5561 5561 5562 5562 5563 5563 5562 5562 5561 5561 5560 5559 5557 5556 5554 5552 5550 5547 5544 5541 5538
5530 5531 5532 5533 5534 5535 5535 5536 5537 5538 5539 5540 5541 5543 5544 5545 5546 5547 5548 5549 5550 5551 5551 5552 5553 5553 5554 5554 5554 5554 5553 5552 5552 5551 5549 5548 5546 5544 5542 5540 5537 5535 5532 5528
5524 5525 5526 5527 5527 5528 5528 5529 5530 5531 5532 5532 5534 5535 5535 5537 5538 5539 5540 5541 5541 5542 5543 5543 5544 5544 5545 5545 5545 5544 5544 5543 5542 5541 5540 5538 5537 5535 5532 5530 5527 5525 5522 5518
5518 5519 5520 5520 5521 5521 5522 5522 5523 5523 5524 5525 5526 5526 5527 5528 5529 5530 5531 5532 5533 5533 5534 5535 5535 5535 5536 5536 5535 5535 5534 5534 5533 5532 5530 5529 5527 5525 5522 5520 5517 5514 5511 5508
5513 5513 5514 5515 5515 5516 5516 5516 5516 5517 5517 5518 5518 5519 5519 5520 5521 5522 5523 5523 5524 5525 5525 5526 5526 5526 5526 5526 5526 5525 5525 5524 5523 5522 5520 5518 5516 5514 5512 5509 5507 5504 5501 5497
5507 5508 5508 5509 5509 5510 5510 5510 5510 5510 5511 5511 5511 5512 5512 5513 5513 5514 5515 5515 5516 5516 5517 5517 5517 5517 5517 5517 5516 5516 5515 5514 5513 5511 5510 5508 5506 5504 5501 5499 5496 5493 5490 5486
5501 5502 5503 5503 5504 5504 5504 5504 5504 5504 5504 5505 5505 5505 5505 5506 5506 5507 5507 5507 5508 5508 5508 5508 5508 5508 5507 5507 5506 5506 5505 5504 5502 5501 5499 5497 5495 5493 5490 5488 5485 5482 5478 5475
5495 5496 5497 5497 5498 5498 5498 5498 5498 5498 5498 5498 5498 5498 5499 5499 5499 5499 5499 5499 5499 5499 5499 5499 5499 5498 5497 5497 5496 5495 5494 5493 5491 5490 5488 5486 5483 5481 5479 5476 5473 5470 5467 5463
5489 5489 5490 5491 5491 5491 5491 5491 5491 5491 5491 5491 5491 5491 5491 5491 5491 5491 5491 5490 5490 5490 5490 5489 5488 5488 5487 5486 5485 5484 5482 5481 5479 5477 5475 5473 5471 5469 5466 5463 5460 5457 5454 5451